Year,Month,Day,Hour,Minute,Value (Times are PST for barometer in hPa)
2016,10,15,01,10,999.29
2016,10,15,01,11,999.29
2016,10,15,01,12,999.29
2016,10,15,01,13,999.32
2016,10,15,01,14,999.32
2016,10,15,01,15,999.37
2016,10,15,01,16,999.43
2016,10,15,01,17,999.39
2016,10,15,01,18,999.43
2016,10,15,01,19,999.43
2016,10,15,01,20,999.43
2016,10,15,01,21,999.43
2016,10,15,01,22,999.49
2016,10,15,01,23,999.49
2016,10,15,01,24,999.49
2016,10,15,01,25,999.46
2016,10,15,01,26,999.49
2016,10,15,01,27,999.49
2016,10,15,01,28,999.49
2016,10,15,01,29,999.53
2016,10,15,01,30,999.56
2016,10,15,01,31,999.59
2016,10,15,01,32,999.56
2016,10,15,01,33,999.56
2016,10,15,01,34,999.59
2016,10,15,01,35,999.56
2016,10,15,01,36,999.59
2016,10,15,01,37,999.59
2016,10,15,01,38,999.59
2016,10,15,01,39,999.56
2016,10,15,01,40,999.53
2016,10,15,01,41,999.53
2016,10,15,01,42,999.56
2016,10,15,01,43,999.56
2016,10,15,01,44,999.59
2016,10,15,01,45,999.59
2016,10,15,01,46,999.53
2016,10,15,01,47,999.59
2016,10,15,01,48,999.56
2016,10,15,01,49,999.56
2016,10,15,01,50,999.59
2016,10,15,01,51,999.59
2016,10,15,01,52,999.59
2016,10,15,01,53,999.56
2016,10,15,01,54,999.56
2016,10,15,01,55,999.59
2016,10,15,01,56,999.63
2016,10,15,01,57,999.70
2016,10,15,01,58,999.63
2016,10,15,01,59,999.59
2016,10,15,02,00,999.63
2016,10,15,02,01,999.63
2016,10,15,02,02,999.66
2016,10,15,02,03,999.63
2016,10,15,02,04,999.63
2016,10,15,02,05,999.63
2016,10,15,02,06,999.63
2016,10,15,02,07,999.59
2016,10,15,02,08,999.63
2016,10,15,02,09,999.59
2016,10,15,02,10,999.63
2016,10,15,02,11,999.63
2016,10,15,02,12,999.63
2016,10,15,02,13,999.59
2016,10,15,02,14,999.59
2016,10,15,02,15,999.59
2016,10,15,02,16,999.56
2016,10,15,02,17,999.53
2016,10,15,02,18,999.59
2016,10,15,02,19,999.59
2016,10,15,02,20,999.63
2016,10,15,02,21,999.63
2016,10,15,02,22,999.59
2016,10,15,02,23,999.59
2016,10,15,02,24,999.59
2016,10,15,02,25,999.63
2016,10,15,02,26,999.59
2016,10,15,02,27,999.59
2016,10,15,02,28,999.53
2016,10,15,02,29,999.59
2016,10,15,02,30,999.53
2016,10,15,02,31,999.53
2016,10,15,02,32,999.53
2016,10,15,02,33,999.49
2016,10,15,02,34,999.53
2016,10,15,02,35,999.56
2016,10,15,02,36,999.59
2016,10,15,02,37,999.63
2016,10,15,02,38,999.63
2016,10,15,02,39,999.70
2016,10,15,02,40,999.63
2016,10,15,02,41,999.63
2016,10,15,02,42,999.70
2016,10,15,02,43,999.73
2016,10,15,02,44,999.70
2016,10,15,02,45,999.70
2016,10,15,02,46,999.66
2016,10,15,02,47,999.66
2016,10,15,02,48,999.66
2016,10,15,02,49,999.66
2016,10,15,02,50,999.66
2016,10,15,02,51,999.63
2016,10,15,02,52,999.66
2016,10,15,02,53,999.63
2016,10,15,02,54,999.59
2016,10,15,02,55,999.63
2016,10,15,02,56,999.63
2016,10,15,02,57,999.63
2016,10,15,02,58,999.63
2016,10,15,02,59,999.63
2016,10,15,03,00,999.56
2016,10,15,03,01,999.59
2016,10,15,03,02,999.59
2016,10,15,03,03,999.59
2016,10,15,03,04,999.63
2016,10,15,03,05,999.63
2016,10,15,03,06,999.59
2016,10,15,03,07,999.63
2016,10,15,03,08,999.59
2016,10,15,03,09,999.59
2016,10,15,03,10,999.63
2016,10,15,03,11,999.59
2016,10,15,03,12,999.59
2016,10,15,03,13,999.56
2016,10,15,03,14,999.53
2016,10,15,03,15,999.53
2016,10,15,03,16,999.49
2016,10,15,03,17,999.56
2016,10,15,03,18,999.49
2016,10,15,03,19,999.49
2016,10,15,03,20,999.49
2016,10,15,03,21,999.49
2016,10,15,03,22,999.56
2016,10,15,03,23,999.63
2016,10,15,03,24,999.63
2016,10,15,03,25,999.66
2016,10,15,03,26,999.63
2016,10,15,03,27,999.63
2016,10,15,03,28,999.55
2016,10,15,03,29,999.46
2016,10,15,03,30,999.43
2016,10,15,03,31,999.39
2016,10,15,03,32,999.46
2016,10,15,03,33,999.46
2016,10,15,03,34,999.43
2016,10,15,03,35,999.43
2016,10,15,03,36,999.39
2016,10,15,03,37,999.43
2016,10,15,03,38,999.39
2016,10,15,03,39,999.39
2016,10,15,03,40,999.32
2016,10,15,03,41,999.36
2016,10,15,03,42,999.36
2016,10,15,03,43,999.39
2016,10,15,03,44,999.39
2016,10,15,03,45,999.36
2016,10,15,03,46,999.43
2016,10,15,03,47,999.39
2016,10,15,03,48,999.36
2016,10,15,03,49,999.39
2016,10,15,03,50,999.36
2016,10,15,03,51,999.39
2016,10,15,03,52,999.43
2016,10,15,03,53,999.43
2016,10,15,03,54,999.43
2016,10,15,03,55,999.43
2016,10,15,03,56,999.43
2016,10,15,03,57,999.43
2016,10,15,03,58,999.46
2016,10,15,03,59,999.46
2016,10,15,04,00,999.43
2016,10,15,04,01,999.49
2016,10,15,04,02,999.46
2016,10,15,04,03,999.46
2016,10,15,04,04,999.43
2016,10,15,04,05,999.43
2016,10,15,04,06,999.43
2016,10,15,04,07,999.36
2016,10,15,04,08,999.32
2016,10,15,04,09,999.32
2016,10,15,04,10,999.29
2016,10,15,04,11,999.22
2016,10,15,04,12,999.29
2016,10,15,04,13,999.26
2016,10,15,04,14,999.26
2016,10,15,04,15,999.22
2016,10,15,04,16,999.26
2016,10,15,04,17,999.26
2016,10,15,04,18,999.15
2016,10,15,04,19,999.22
2016,10,15,04,20,999.19
2016,10,15,04,21,999.19
2016,10,15,04,22,999.19
2016,10,15,04,23,999.15
2016,10,15,04,24,999.12
2016,10,15,04,25,999.12
2016,10,15,04,26,999.15
2016,10,15,04,27,999.19
2016,10,15,04,28,999.15
2016,10,15,04,29,999.15
2016,10,15,04,30,999.15
2016,10,15,04,31,999.15
2016,10,15,04,32,999.12
2016,10,15,04,33,999.12
2016,10,15,04,34,999.12
2016,10,15,04,35,999.09
2016,10,15,04,36,999.11
2016,10,15,04,37,999.05
2016,10,15,04,38,999.05
2016,10,15,04,39,999.09
2016,10,15,04,40,999.02
2016,10,15,04,41,999.02
2016,10,15,04,42,999.05
2016,10,15,04,43,999.05
2016,10,15,04,44,999.02
2016,10,15,04,45,999.02
2016,10,15,04,46,999.02
2016,10,15,04,47,998.95
2016,10,15,04,48,998.95
2016,10,15,04,49,998.92
2016,10,15,04,50,998.95
2016,10,15,04,51,998.92
2016,10,15,04,52,998.95
2016,10,15,04,53,998.95
2016,10,15,04,54,998.88
2016,10,15,04,55,998.82
2016,10,15,04,56,998.82
2016,10,15,04,57,998.82
2016,10,15,04,58,998.82
2016,10,15,04,59,998.85
2016,10,15,05,00,998.85
2016,10,15,05,01,998.82
2016,10,15,05,02,998.82
2016,10,15,05,03,998.82
2016,10,15,05,04,998.78
2016,10,15,05,05,998.82
2016,10,15,05,06,998.85
2016,10,15,05,07,998.82
2016,10,15,05,08,998.85
2016,10,15,05,09,998.85
2016,10,15,05,10,998.85
2016,10,15,05,11,998.85
2016,10,15,05,12,998.85
2016,10,15,05,13,998.85
2016,10,15,05,14,998.88
2016,10,15,05,15,998.85
2016,10,15,05,16,998.85
2016,10,15,05,17,998.85
2016,10,15,05,18,998.85
2016,10,15,05,19,998.85
2016,10,15,05,20,998.85
2016,10,15,05,21,998.88
2016,10,15,05,22,998.88
2016,10,15,05,23,998.85
2016,10,15,05,24,998.88
2016,10,15,05,25,998.88
2016,10,15,05,26,998.82
2016,10,15,05,27,998.78
2016,10,15,05,28,998.75
2016,10,15,05,29,998.78
2016,10,15,05,30,998.78
2016,10,15,05,31,998.78
2016,10,15,05,32,998.82
2016,10,15,05,33,998.82
2016,10,15,05,34,998.78
2016,10,15,05,35,998.82
2016,10,15,05,36,998.75
2016,10,15,05,37,998.75
2016,10,15,05,38,998.75
2016,10,15,05,39,998.78
2016,10,15,05,40,998.82
2016,10,15,05,41,998.82
2016,10,15,05,42,998.75
2016,10,15,05,43,998.75
2016,10,15,05,44,998.68
2016,10,15,05,45,998.68
2016,10,15,05,46,998.65
2016,10,15,05,47,998.65
2016,10,15,05,48,998.61
2016,10,15,05,49,998.58
2016,10,15,05,50,998.58
2016,10,15,05,51,998.58
2016,10,15,05,52,998.54
2016,10,15,05,53,998.54
2016,10,15,05,54,998.58
2016,10,15,05,55,998.61
2016,10,15,05,56,998.58
2016,10,15,05,57,998.58
2016,10,15,05,58,998.54
2016,10,15,05,59,998.51
2016,10,15,06,00,998.48
2016,10,15,06,01,998.41
2016,10,15,06,02,998.41
2016,10,15,06,03,998.48
2016,10,15,06,04,998.51
2016,10,15,06,05,998.51
2016,10,15,06,06,998.58
2016,10,15,06,07,998.58
2016,10,15,06,08,998.61
2016,10,15,06,09,998.61
2016,10,15,06,10,998.61
2016,10,15,06,11,998.65
2016,10,15,06,12,998.68
2016,10,15,06,13,998.65
2016,10,15,06,14,998.65
2016,10,15,06,15,998.61
2016,10,15,06,16,998.54
2016,10,15,06,17,998.47
2016,10,15,06,18,998.38
2016,10,15,06,19,998.31
2016,10,15,06,20,998.31
2016,10,15,06,21,998.24
2016,10,15,06,22,998.24
2016,10,15,06,23,998.23
2016,10,15,06,24,998.14
2016,10,15,06,25,998.17
2016,10,15,06,26,998.17
2016,10,15,06,27,998.17
2016,10,15,06,28,998.17
2016,10,15,06,29,998.17
2016,10,15,06,30,998.17
2016,10,15,06,31,998.14
2016,10,15,06,32,998.17
2016,10,15,06,33,998.17
2016,10,15,06,34,998.14
2016,10,15,06,35,998.10
2016,10,15,06,36,998.10
2016,10,15,06,37,998.07
2016,10,15,06,38,998.07
2016,10,15,06,39,998.07
2016,10,15,06,40,998.07
2016,10,15,06,41,998.07
2016,10,15,06,42,998.10
2016,10,15,06,43,998.10
2016,10,15,06,44,998.09
2016,10,15,06,45,998.04
2016,10,15,06,46,998.00
2016,10,15,06,47,997.97
2016,10,15,06,48,997.90
2016,10,15,06,49,997.90
2016,10,15,06,50,997.90
2016,10,15,06,51,997.90
2016,10,15,06,52,997.94
2016,10,15,06,53,997.87
2016,10,15,06,54,997.80
2016,10,15,06,55,997.80
2016,10,15,06,56,997.77
2016,10,15,06,57,997.77
2016,10,15,06,58,997.73
2016,10,15,06,59,997.73
2016,10,15,07,00,997.70
2016,10,15,07,01,997.73
2016,10,15,07,02,997.73
2016,10,15,07,03,997.77
2016,10,15,07,04,997.77
2016,10,15,07,05,997.73
2016,10,15,07,06,997.70
2016,10,15,07,07,997.73
2016,10,15,07,08,997.66
2016,10,15,07,09,997.73
2016,10,15,07,10,997.73
2016,10,15,07,11,997.77
2016,10,15,07,12,997.66
2016,10,15,07,13,997.66
2016,10,15,07,14,997.70
2016,10,15,07,15,997.60
2016,10,15,07,16,997.56
2016,10,15,07,17,997.56
2016,10,15,07,18,997.56
2016,10,15,07,19,997.56
2016,10,15,07,20,997.60
2016,10,15,07,21,997.56
2016,10,15,07,22,997.53
2016,10,15,07,23,997.53
2016,10,15,07,24,997.56
2016,10,15,07,25,997.56
2016,10,15,07,26,997.50
2016,10,15,07,27,997.53
2016,10,15,07,28,997.50
2016,10,15,07,29,997.50
2016,10,15,07,30,997.50
2016,10,15,07,31,997.50
2016,10,15,07,32,997.46
2016,10,15,07,33,997.46
2016,10,15,07,34,997.43
2016,10,15,07,35,997.43
2016,10,15,07,36,997.36
2016,10,15,07,37,997.33
2016,10,15,07,38,997.29
2016,10,15,07,39,997.29
2016,10,15,07,40,997.29
2016,10,15,07,41,997.22
2016,10,15,07,42,997.22
2016,10,15,07,43,997.19
2016,10,15,07,44,997.19
2016,10,15,07,45,997.12
2016,10,15,07,46,997.12
2016,10,15,07,47,997.12
2016,10,15,07,48,997.12
2016,10,15,07,49,997.12
2016,10,15,07,50,997.09
2016,10,15,07,51,997.09
2016,10,15,07,52,997.09
2016,10,15,07,53,997.05
2016,10,15,07,54,997.09
2016,10,15,07,55,997.09
2016,10,15,07,56,997.09
2016,10,15,07,57,997.09
2016,10,15,07,58,997.05
2016,10,15,07,59,997.05
2016,10,15,08,00,997.02
2016,10,15,08,01,997.02
2016,10,15,08,02,997.05
2016,10,15,08,03,997.01
2016,10,15,08,04,996.95
2016,10,15,08,05,996.95
2016,10,15,08,06,996.95
2016,10,15,08,07,996.95
2016,10,15,08,08,996.89
2016,10,15,08,09,996.92
2016,10,15,08,10,996.92
2016,10,15,08,11,996.92
2016,10,15,08,12,996.92
2016,10,15,08,13,996.89
2016,10,15,08,14,996.89
2016,10,15,08,15,996.85
2016,10,15,08,16,996.82
2016,10,15,08,17,996.85
2016,10,15,08,18,996.85
2016,10,15,08,19,996.85
2016,10,15,08,20,996.82
2016,10,15,08,21,996.85
2016,10,15,08,22,996.82
2016,10,15,08,23,996.82
2016,10,15,08,24,996.82
2016,10,15,08,25,996.75
2016,10,15,08,26,996.75
2016,10,15,08,27,996.75
2016,10,15,08,28,996.72
2016,10,15,08,29,996.75
2016,10,15,08,30,996.78
2016,10,15,08,31,996.68
2016,10,15,08,32,996.68
2016,10,15,08,33,996.75
2016,10,15,08,34,996.68
2016,10,15,08,35,996.65
2016,10,15,08,36,996.68
2016,10,15,08,37,996.68
2016,10,15,08,38,996.61
2016,10,15,08,39,996.61
2016,10,15,08,40,996.61
2016,10,15,08,41,996.58
2016,10,15,08,42,996.55
2016,10,15,08,43,996.61
2016,10,15,08,44,996.55
2016,10,15,08,45,996.58
2016,10,15,08,46,996.55
2016,10,15,08,47,996.51
2016,10,15,08,48,996.45
2016,10,15,08,49,996.48
2016,10,15,08,50,996.48
2016,10,15,08,51,996.41
2016,10,15,08,52,996.48
2016,10,15,08,53,996.45
2016,10,15,08,54,996.38
2016,10,15,08,55,996.41
2016,10,15,08,56,996.34
2016,10,15,08,57,996.28
2016,10,15,08,58,996.31
2016,10,15,08,59,996.24
2016,10,15,09,00,996.21
2016,10,15,09,01,996.21
2016,10,15,09,02,996.17
2016,10,15,09,03,996.11
2016,10,15,09,04,996.14
2016,10,15,09,05,996.14
2016,10,15,09,06,996.14
2016,10,15,09,07,996.11
2016,10,15,09,08,996.07
2016,10,15,09,09,996.07
2016,10,15,09,10,996.07
2016,10,15,09,11,996.01
2016,10,15,09,12,996.01
2016,10,15,09,13,995.97
2016,10,15,09,14,995.94
2016,10,15,09,15,995.90
2016,10,15,09,16,995.90
2016,10,15,09,17,995.84
2016,10,15,09,18,995.80
2016,10,15,09,19,995.77
2016,10,15,09,20,995.77
2016,10,15,09,21,995.80
2016,10,15,09,22,995.77
2016,10,15,09,23,995.73
2016,10,15,09,24,995.70
2016,10,15,09,25,995.67
2016,10,15,09,26,995.60
2016,10,15,09,27,995.56
2016,10,15,09,28,995.53
2016,10,15,09,29,995.50
2016,10,15,09,30,995.53
2016,10,15,09,31,995.46
2016,10,15,09,32,995.43
2016,10,15,09,33,995.40
2016,10,15,09,34,995.36
2016,10,15,09,35,995.40
2016,10,15,09,36,995.29
2016,10,15,09,37,995.29
2016,10,15,09,38,995.26
2016,10,15,09,39,995.26
2016,10,15,09,40,995.19
2016,10,15,09,41,995.26
2016,10,15,09,42,995.19
2016,10,15,09,43,995.19
2016,10,15,09,44,995.09
2016,10,15,09,45,995.16
2016,10,15,09,46,995.09
2016,10,15,09,47,995.06
2016,10,15,09,48,995.06
2016,10,15,09,49,995.06
2016,10,15,09,50,994.99
2016,10,15,09,51,994.99
2016,10,15,09,52,995.02
2016,10,15,09,53,994.99
2016,10,15,09,54,995.02
2016,10,15,09,55,994.99
2016,10,15,09,56,994.96
2016,10,15,09,57,994.92
2016,10,15,09,58,994.92
2016,10,15,09,59,994.92
2016,10,15,10,00,994.82
2016,10,15,10,01,994.85
2016,10,15,10,02,994.82
2016,10,15,10,03,994.79
2016,10,15,10,04,994.75
2016,10,15,10,05,994.72
2016,10,15,10,06,994.75
2016,10,15,10,07,994.68
2016,10,15,10,08,994.72
2016,10,15,10,09,994.72
2016,10,15,10,10,994.62
2016,10,15,10,11,994.58
2016,10,15,10,12,994.58
2016,10,15,10,13,994.48
2016,10,15,10,14,994.45
2016,10,15,10,15,994.38
2016,10,15,10,16,994.35
2016,10,15,10,17,994.28
2016,10,15,10,18,994.24
2016,10,15,10,19,994.18
2016,10,15,10,20,994.18
2016,10,15,10,21,994.14
2016,10,15,10,22,994.04
2016,10,15,10,23,994.04
2016,10,15,10,24,994.07
2016,10,15,10,25,994.01
2016,10,15,10,26,993.97
2016,10,15,10,27,993.97
2016,10,15,10,28,993.97
2016,10,15,10,29,993.94
2016,10,15,10,30,993.91
2016,10,15,10,31,993.80
2016,10,15,10,32,993.84
2016,10,15,10,33,993.87
2016,10,15,10,34,993.80
2016,10,15,10,35,993.77
2016,10,15,10,36,993.70
2016,10,15,10,37,993.70
2016,10,15,10,38,993.66
2016,10,15,10,39,993.57
2016,10,15,10,40,993.57
2016,10,15,10,41,993.57
2016,10,15,10,42,993.50
2016,10,15,10,43,993.50
2016,10,15,10,44,993.50
2016,10,15,10,45,993.33
2016,10,15,10,46,993.40
2016,10,15,10,47,993.30
2016,10,15,10,48,993.33
2016,10,15,10,49,993.30
2016,10,15,10,50,993.30
2016,10,15,10,51,993.26
2016,10,15,10,52,993.23
2016,10,15,10,53,993.16
2016,10,15,10,54,993.16
2016,10,15,10,55,993.09
2016,10,15,10,56,993.06
2016,10,15,10,57,993.06
2016,10,15,10,58,993.06
2016,10,15,10,59,992.99
2016,10,15,11,00,992.92
2016,10,15,11,01,992.89
2016,10,15,11,02,992.86
2016,10,15,11,03,992.82
2016,10,15,11,04,992.75
2016,10,15,11,05,992.72
2016,10,15,11,06,992.75
2016,10,15,11,07,992.72
2016,10,15,11,08,992.72
2016,10,15,11,09,992.75
2016,10,15,11,10,992.72
2016,10,15,11,11,992.69
2016,10,15,11,12,992.65
2016,10,15,11,13,992.58
2016,10,15,11,14,992.61
2016,10,15,11,15,992.52
2016,10,15,11,16,992.52
2016,10,15,11,17,992.45
2016,10,15,11,18,992.48
2016,10,15,11,19,992.42
2016,10,15,11,20,992.38
2016,10,15,11,21,992.31
2016,10,15,11,22,992.28
2016,10,15,11,23,992.35
2016,10,15,11,24,992.28
2016,10,15,11,25,992.28
2016,10,15,11,26,992.21
2016,10,15,11,27,992.18
2016,10,15,11,28,992.14
2016,10,15,11,29,992.08
2016,10,15,11,30,992.04
2016,10,15,11,31,991.98
2016,10,15,11,32,991.87
2016,10,15,11,33,991.98
2016,10,15,11,34,991.87
2016,10,15,11,35,991.81
2016,10,15,11,36,991.77
2016,10,15,11,37,991.70
2016,10,15,11,38,991.67
2016,10,15,11,39,991.70
2016,10,15,11,40,991.67
2016,10,15,11,41,991.67
2016,10,15,11,42,991.53
2016,10,15,11,43,991.47
2016,10,15,11,44,991.47
2016,10,15,11,45,991.40
2016,10,15,11,46,991.40
2016,10,15,11,47,991.33
2016,10,15,11,48,991.33
2016,10,15,11,49,991.26
2016,10,15,11,50,991.26
2016,10,15,11,51,991.20
2016,10,15,11,52,991.16
2016,10,15,11,53,991.09
2016,10,15,11,54,991.09
2016,10,15,11,55,990.96
2016,10,15,11,56,990.93
2016,10,15,11,57,990.96
2016,10,15,11,58,990.89
2016,10,15,11,59,990.86
2016,10,15,12,00,990.89
2016,10,15,12,01,990.82
2016,10,15,12,02,990.79
2016,10,15,12,03,990.72
2016,10,15,12,04,990.72
2016,10,15,12,05,990.69
2016,10,15,12,06,990.72
2016,10,15,12,07,990.62
2016,10,15,12,08,990.59
2016,10,15,12,09,990.59
2016,10,15,12,10,990.65
2016,10,15,12,11,990.62
2016,10,15,12,12,990.55
2016,10,15,12,13,990.55
2016,10,15,12,14,990.49
2016,10,15,12,15,990.49
2016,10,15,12,16,990.49
2016,10,15,12,17,990.42
2016,10,15,12,18,990.42
2016,10,15,12,19,990.38
2016,10,15,12,20,990.38
2016,10,15,12,21,990.42
2016,10,15,12,22,990.35
2016,10,15,12,23,990.35
2016,10,15,12,24,990.17
2016,10,15,12,25,990.04
2016,10,15,12,26,990.04
2016,10,15,12,27,990.08
2016,10,15,12,28,990.01
2016,10,15,12,29,989.98
2016,10,15,12,30,989.91
2016,10,15,12,31,989.81
2016,10,15,12,32,989.84
2016,10,15,12,33,989.74
2016,10,15,12,34,989.74
2016,10,15,12,35,989.67
2016,10,15,12,36,989.64
2016,10,15,12,37,989.54
2016,10,15,12,38,989.50
2016,10,15,12,39,989.50
2016,10,15,12,40,989.50
2016,10,15,12,41,989.47
2016,10,15,12,42,989.44
2016,10,15,12,43,989.36
2016,10,15,12,44,989.23
2016,10,15,12,45,989.16
2016,10,15,12,46,989.06
2016,10,15,12,47,989.00
2016,10,15,12,48,988.99
2016,10,15,12,49,988.89
2016,10,15,12,50,988.86
2016,10,15,12,51,988.79
2016,10,15,12,52,988.83
2016,10,15,12,53,988.79
2016,10,15,12,54,988.86
2016,10,15,12,55,988.86
2016,10,15,12,56,988.86
2016,10,15,12,57,988.76
2016,10,15,12,58,988.79
2016,10,15,12,59,988.85
2016,10,15,13,00,988.69
2016,10,15,13,01,988.72
2016,10,15,13,02,988.62
2016,10,15,13,03,988.55
2016,10,15,13,04,988.52
2016,10,15,13,05,988.49
2016,10,15,13,06,988.42
2016,10,15,13,07,988.38
2016,10,15,13,08,988.25
2016,10,15,13,09,988.15
2016,10,15,13,10,988.01
2016,10,15,13,11,987.98
2016,10,15,13,12,987.98
2016,10,15,13,13,987.91
2016,10,15,13,14,987.91
2016,10,15,13,15,987.89
2016,10,15,13,16,987.98
2016,10,15,13,17,987.95
2016,10,15,13,18,987.88
2016,10,15,13,19,987.81
2016,10,15,13,20,987.81
2016,10,15,13,21,987.78
2016,10,15,13,22,987.67
2016,10,15,13,23,987.64
2016,10,15,13,24,987.51
2016,10,15,13,25,987.47
2016,10,15,13,26,987.30
2016,10,15,13,27,987.37
2016,10,15,13,28,987.37
2016,10,15,13,29,987.37
2016,10,15,13,30,987.37
2016,10,15,13,31,987.30
2016,10,15,13,32,987.30
2016,10,15,13,33,987.27
2016,10,15,13,34,987.30
2016,10,15,13,35,987.27
2016,10,15,13,36,987.30
2016,10,15,13,37,987.20
2016,10,15,13,38,987.27
2016,10,15,13,39,987.13
2016,10,15,13,40,987.06
2016,10,15,13,41,987.03
2016,10,15,13,42,986.86
2016,10,15,13,43,986.90
2016,10,15,13,44,986.83
2016,10,15,13,45,986.79
2016,10,15,13,46,986.72
2016,10,15,13,47,986.62
2016,10,15,13,48,986.66
2016,10,15,13,49,986.69
2016,10,15,13,50,986.73
2016,10,15,13,51,986.69
2016,10,15,13,52,986.73
2016,10,15,13,53,986.69
2016,10,15,13,54,986.66
2016,10,15,13,55,986.62
2016,10,15,13,56,986.59
2016,10,15,13,57,986.56
2016,10,15,13,58,986.62
2016,10,15,13,59,986.62
2016,10,15,14,00,986.56
2016,10,15,14,01,986.49
2016,10,15,14,02,986.41
2016,10,15,14,03,986.32
2016,10,15,14,04,986.32
2016,10,15,14,05,986.29
2016,10,15,14,06,986.29
2016,10,15,14,07,986.22
2016,10,15,14,08,986.22
2016,10,15,14,09,986.09
2016,10,15,14,10,985.91
2016,10,15,14,11,985.95
2016,10,15,14,12,985.78
2016,10,15,14,13,985.71
2016,10,15,14,14,985.71
2016,10,15,14,15,985.57
2016,10,15,14,16,985.47
2016,10,15,14,17,985.54
2016,10,15,14,18,985.51
2016,10,15,14,19,985.51
2016,10,15,14,20,985.43
2016,10,15,14,21,985.30
2016,10,15,14,22,985.30
2016,10,15,14,23,985.13
2016,10,15,14,24,985.13
2016,10,15,14,25,985.07
2016,10,15,14,26,985.17
2016,10,15,14,27,985.08
2016,10,15,14,28,985.03
2016,10,15,14,29,984.80
2016,10,15,14,30,984.73
2016,10,15,14,31,984.55
2016,10,15,14,32,984.40
2016,10,15,14,33,984.53
2016,10,15,14,34,984.46
2016,10,15,14,35,984.41
2016,10,15,14,36,984.32
2016,10,15,14,37,984.32
2016,10,15,14,38,984.36
2016,10,15,14,39,984.32
2016,10,15,14,40,984.29
2016,10,15,14,41,984.29
2016,10,15,14,42,984.12
2016,10,15,14,43,984.12
2016,10,15,14,44,984.08
2016,10,15,14,45,984.08
2016,10,15,14,46,984.12
2016,10,15,14,47,984.08
2016,10,15,14,48,983.98
2016,10,15,14,49,984.02
2016,10,15,14,50,983.92
2016,10,15,14,51,984.01
2016,10,15,14,52,983.85
2016,10,15,14,53,983.85
2016,10,15,14,54,983.81
2016,10,15,14,55,983.75
2016,10,15,14,56,983.75
2016,10,15,14,57,983.68
2016,10,15,14,58,983.75
2016,10,15,14,59,983.68
2016,10,15,15,00,983.61
2016,10,15,15,01,983.54
2016,10,15,15,02,983.54
2016,10,15,15,03,983.48
2016,10,15,15,04,983.48
2016,10,15,15,05,983.48
2016,10,15,15,06,983.41
2016,10,15,15,07,983.37
2016,10,15,15,08,983.37
2016,10,15,15,09,983.27
2016,10,15,15,10,983.10
2016,10,15,15,11,983.04
2016,10,15,15,12,983.10
2016,10,15,15,13,983.07
2016,10,15,15,14,983.04
2016,10,15,15,15,982.97
2016,10,15,15,16,982.97
2016,10,15,15,17,982.93
2016,10,15,15,18,982.80
2016,10,15,15,19,982.76
2016,10,15,15,20,982.66
2016,10,15,15,21,982.64
2016,10,15,15,22,982.73
2016,10,15,15,23,982.80
2016,10,15,15,24,982.59
2016,10,15,15,25,982.43
2016,10,15,15,26,982.33
2016,10,15,15,27,982.32
2016,10,15,15,28,982.29
2016,10,15,15,29,982.22
2016,10,15,15,30,982.29
2016,10,15,15,31,982.22
2016,10,15,15,32,982.19
2016,10,15,15,33,982.26
2016,10,15,15,34,982.15
2016,10,15,15,35,982.09
2016,10,15,15,36,982.09
2016,10,15,15,37,981.99
2016,10,15,15,38,982.01
2016,10,15,15,39,981.85
2016,10,15,15,40,981.85
2016,10,15,15,41,981.75
2016,10,15,15,42,981.78
2016,10,15,15,43,981.78
2016,10,15,15,44,981.85
2016,10,15,15,45,981.82
2016,10,15,15,46,981.78
2016,10,15,15,47,981.78
2016,10,15,15,48,981.68
2016,10,15,15,49,981.60
2016,10,15,15,50,981.48
2016,10,15,15,51,981.38
2016,10,15,15,52,981.41
2016,10,15,15,53,981.44
2016,10,15,15,54,981.61
2016,10,15,15,55,981.58
2016,10,15,15,56,981.55
2016,10,15,15,57,981.43
2016,10,15,15,58,981.34
2016,10,15,15,59,981.27
2016,10,15,16,00,981.27
2016,10,15,16,01,981.24
2016,10,15,16,02,981.27
2016,10,15,16,03,981.17
2016,10,15,16,04,981.10
2016,10,15,16,05,981.14
2016,10,15,16,06,981.14
2016,10,15,16,07,981.04
2016,10,15,16,08,981.04
2016,10,15,16,09,981.04
2016,10,15,16,10,981.07
2016,10,15,16,11,980.97
2016,10,15,16,12,981.10
2016,10,15,16,13,981.14
2016,10,15,16,14,981.07
2016,10,15,16,15,981.07
2016,10,15,16,16,981.14
2016,10,15,16,17,980.94
2016,10,15,16,18,980.90
2016,10,15,16,19,981.00
2016,10,15,16,20,980.97
2016,10,15,16,21,981.07
2016,10,15,16,22,980.90
2016,10,15,16,23,980.83
2016,10,15,16,24,980.90
2016,10,15,16,25,980.70
2016,10,15,16,26,980.66
2016,10,15,16,27,980.63
2016,10,15,16,28,980.53
2016,10,15,16,29,980.46
2016,10,15,16,30,980.39
2016,10,15,16,31,980.26
2016,10,15,16,32,980.26
2016,10,15,16,33,980.19
2016,10,15,16,34,980.12
2016,10,15,16,35,980.08
2016,10,15,16,36,979.92
2016,10,15,16,37,979.89
2016,10,15,16,38,979.98
2016,10,15,16,39,979.84
2016,10,15,16,40,979.75
2016,10,15,16,41,979.65
2016,10,15,16,42,979.65
2016,10,15,16,43,979.58
2016,10,15,16,44,979.72
2016,10,15,16,45,979.75
2016,10,15,16,46,979.94
2016,10,15,16,47,979.65
2016,10,15,16,48,979.89
2016,10,15,16,49,979.68
2016,10,15,16,50,979.65
2016,10,15,16,51,979.65
2016,10,15,16,52,979.72
2016,10,15,16,53,979.68
2016,10,15,16,54,979.65
2016,10,15,16,55,979.65
2016,10,15,16,56,979.72
2016,10,15,16,57,979.65
2016,10,15,16,58,979.72
2016,10,15,16,59,979.55
2016,10,15,17,00,979.58
2016,10,15,17,01,979.55
2016,10,15,17,02,979.48
2016,10,15,17,03,979.45
2016,10,15,17,04,979.58
2016,10,15,17,05,979.51
2016,10,15,17,06,979.51
2016,10,15,17,07,979.34
2016,10,15,17,08,979.45
2016,10,15,17,09,979.22
2016,10,15,17,10,979.24
2016,10,15,17,11,979.28
2016,10,15,17,12,979.24
2016,10,15,17,13,979.31
2016,10,15,17,14,979.31
2016,10,15,17,15,979.24
2016,10,15,17,16,979.41
2016,10,15,17,17,979.41
2016,10,15,17,18,979.34
2016,10,15,17,19,979.38
2016,10,15,17,20,979.34
2016,10,15,17,21,979.41
2016,10,15,17,22,979.46
2016,10,15,17,23,979.55
2016,10,15,17,24,979.42
2016,10,15,17,25,979.48
2016,10,15,17,26,979.41
2016,10,15,17,27,979.58
2016,10,15,17,28,979.55
2016,10,15,17,29,979.61
2016,10,15,17,30,979.61
2016,10,15,17,31,979.65
2016,10,15,17,32,979.58
2016,10,15,17,33,979.61
2016,10,15,17,34,979.61
2016,10,15,17,35,979.65
2016,10,15,17,36,979.65
2016,10,15,17,37,979.61
2016,10,15,17,38,979.58
2016,10,15,17,39,979.55
2016,10,15,17,40,979.41
2016,10,15,17,41,979.51
2016,10,15,17,42,979.58
2016,10,15,17,43,979.58
2016,10,15,17,44,979.51
2016,10,15,17,45,979.58
2016,10,15,17,46,979.65